• Em Portugal
  • Lista de países
  • Para 7 dias
  • Temperatura da água
  • Mapas de satélite
  • Mapa do tempo
  • Widgets de tempo
  • user-avatar
    Iniciar Sessão

    Previsão horária em Naftalan

    Hoje, 25 Maio, Sexta-feira

    Tempo Temperatura Precipitação Vento Pressão Humidade
    00:00 +24°C° 0 mm 1 m/s 760 mmHg 43%
    01:00 +23°C° 0 mm 1 m/s 759 mmHg 44%
    02:00 +23°C° 0 mm 1 m/s 759 mmHg 45%
    03:00 +22°C° 0 mm 1 m/s 759 mmHg 46%
    04:00 +23°C° 0 mm 1 m/s 759 mmHg 44%
    05:00 +24°C° 0 mm 1 m/s 759 mmHg 43%
    06:00 +23°C° 0 mm 0 m/s 759 mmHg 41%
    07:00 +27°C° 0 mm 1 m/s 759 mmHg 37%
    08:00 +29°C° 0 mm 1 m/s 759 mmHg 32%
    09:00 +31°C° 0 mm 1 m/s 759 mmHg 27%
    10:00 +32°C° 0 mm 1 m/s 759 mmHg 25%
    11:00 +35°C° 0 mm 2 m/s 758 mmHg 23%
    12:00 +36°C° 0 mm 2 m/s 758 mmHg 21%
    13:00 +36°C° 0 mm 3 m/s 758 mmHg 22%
    14:00 +36°C° 0 mm 3 m/s 757 mmHg 22%
    15:00 +36°C° 0 mm 4 m/s 757 mmHg 22%
    16:00 +35°C° 0 mm 4 m/s 757 mmHg 25%
    17:00 +33°C° 0 mm 4 m/s 757 mmHg 28%
    18:00 +32°C° 0 mm 4 m/s 757 mmHg 32%
    19:00 +29°C° 0 mm 4 m/s 757 mmHg 36%
    20:00 +27°C° 0 mm 3 m/s 757 mmHg 41%
    21:00 +26°C° 0 mm 3 m/s 757 mmHg 45%
    22:00 +25°C° 0 mm 3 m/s 757 mmHg 47%
    23:00 +25°C° 0 mm 2 m/s 757 mmHg 49%

    Amanhã, 26 Maio, Sábado

    Tempo Temperatura Precipitação Vento Pressão Humidade
    00:00 +24°C° 0 mm 2 m/s 757 mmHg 50%
    01:00 +24°C° 0 mm 2 m/s 757 mmHg 50%
    02:00 +24°C° 0 mm 2 m/s 757 mmHg 50%
    03:00 +24°C° 0 mm 1 m/s 757 mmHg 49%
    04:00 +25°C° 0 mm 2 m/s 757 mmHg 48%
    05:00 +26°C° 0 mm 2 m/s 757 mmHg 48%
    06:00 +26°C° 0 mm 2 m/s 758 mmHg 47%
    07:00 +28°C° 0 mm 3 m/s 758 mmHg 41%
    08:00 +30°C° 0 mm 3 m/s 758 mmHg 36%
    09:00 +33°C° 0 mm 3 m/s 758 mmHg 30%
    10:00 +34°C° 0 mm 3 m/s 758 mmHg 28%
    11:00 +35°C° 0 mm 3 m/s 758 mmHg 26%
    12:00 +36°C° 0 mm 4 m/s 758 mmHg 24%
    13:00 +36°C° 0 mm 4 m/s 758 mmHg 26%
    14:00 +36°C° 0 mm 5 m/s 758 mmHg 28%
    15:00 +36°C° 0 mm 5 m/s 758 mmHg 30%
    16:00 +34°C° 0,3 mm 5 m/s 758 mmHg 37%
    17:00 +32°C° 0,3 mm 4 m/s 759 mmHg 44%
    18:00 +29°C° 0,3 mm 4 m/s 759 mmHg 51%
    19:00 +28°C° 0,1 mm 4 m/s 760 mmHg 54%
    20:00 +27°C° 0,1 mm 4 m/s 760 mmHg 57%
    21:00 +26°C° 0,1 mm 4 m/s 761 mmHg 60%
    22:00 +26°C° 0 mm 5 m/s 762 mmHg 61%
    23:00 +26°C° 0 mm 5 m/s 762 mmHg 61%

    Depois de amanhã, 27 Maio, Domingo

    Tempo Temperatura Precipitação Vento Pressão Humidade
    00:00 +24°C° 0 mm 6 m/s 762 mmHg 62%
    01:00 +24°C° 0,2 mm 7 m/s 763 mmHg 62%
    02:00 +24°C° 0,2 mm 8 m/s 763 mmHg 62%
    03:00 +23°C° 0,2 mm 9 m/s 764 mmHg 62%
    04:00 +23°C° 0 mm 9 m/s 765 mmHg 59%
    05:00 +23°C° 0 mm 9 m/s 765 mmHg 55%
    06:00 +23°C° 0 mm 10 m/s 766 mmHg 52%
    07:00 +24°C° 0 mm 10 m/s 767 mmHg 49%
    08:00 +26°C° 0 mm 10 m/s 767 mmHg 45%
    09:00 +27°C° 0 mm 10 m/s 768 mmHg 42%
    10:00 +27°C° 0 mm 9 m/s 768 mmHg 42%
    11:00 +27°C° 0 mm 9 m/s 769 mmHg 43%
    12:00 +27°C° 0 mm 9 m/s 769 mmHg 44%
    13:00 +26°C° 0 mm 8 m/s 769 mmHg 44%
    14:00 +26°C° 0 mm 8 m/s 769 mmHg 43%
    15:00 +26°C° 0 mm 7 m/s 769 mmHg 42%
    16:00 +24°C° 0 mm 7 m/s 769 mmHg 43%
    17:00 +23°C° 0 mm 6 m/s 770 mmHg 44%
    18:00 +22°C° 0 mm 5 m/s 770 mmHg 45%
    19:00 +21°C° 0 mm 4 m/s 770 mmHg 49%
    20:00 +20°C° 0 mm 3 m/s 770 mmHg 52%
    21:00 +19°C° 0 mm 3 m/s 771 mmHg 55%
    22:00 +19°C° 0 mm 2 m/s 770 mmHg 56%
    23:00 +18°C° 0 mm 2 m/s 770 mmHg 58%

    28 Maio, Segunda-feira

    Tempo Temperatura Precipitação Vento Pressão Humidade
    00:00 +18°C° 0 mm 2 m/s 769 mmHg 60%
    01:00 +18°C° 0 mm 2 m/s 769 mmHg 62%
    02:00 +18°C° 0 mm 1 m/s 769 mmHg 64%
    03:00 +18°C° 0 mm 1 m/s 768 mmHg 66%
    04:00 +19°C° 0 mm 1 m/s 768 mmHg 62%
    05:00 +20°C° 0 mm 1 m/s 768 mmHg 59%
    06:00 +20°C° 0 mm 1 m/s 768 mmHg 56%
    07:00 +21°C° 0 mm 2 m/s 768 mmHg 51%
    08:00 +23°C° 0 mm 2 m/s 767 mmHg 45%
    09:00 +25°C° 0 mm 2 m/s 767 mmHg 40%
    10:00 +26°C° 0 mm 2 m/s 766 mmHg 37%
    11:00 +28°C° 0 mm 2 m/s 766 mmHg 35%
    12:00 +29°C° 0 mm 2 m/s 765 mmHg 32%
    13:00 +30°C° 0 mm 3 m/s 765 mmHg 33%
    14:00 +30°C° 0 mm 4 m/s 764 mmHg 33%
    15:00 +32°C° 0 mm 5 m/s 764 mmHg 34%
    16:00 +29°C° 0 mm 4 m/s 764 mmHg 40%
    17:00 +28°C° 0 mm 4 m/s 763 mmHg 46%
    18:00 +26°C° 0 mm 4 m/s 763 mmHg 52%
    19:00 +25°C° 0 mm 4 m/s 764 mmHg 57%
    20:00 +24°C° 0 mm 3 m/s 764 mmHg 62%
    21:00 +21°C° 0 mm 3 m/s 764 mmHg 67%
    22:00 +21°C° 0 mm 2 m/s 764 mmHg 69%
    23:00 +20°C° 0 mm 2 m/s 764 mmHg 71%

    29 Maio, Terça-feira

    Tempo Temperatura Precipitação Vento Pressão Humidade
    00:00 +21°C° 0 mm 1 m/s 764 mmHg 73%
    01:00 +21°C° 0 mm 1 m/s 764 mmHg 73%
    02:00 +21°C° 0 mm 1 m/s 764 mmHg 73%
    03:00 +21°C° 0 mm 1 m/s 764 mmHg 73%
    04:00 +22°C° 0 mm 1 m/s 764 mmHg 68%
    05:00 +21°C° 0 mm 2 m/s 764 mmHg 63%
    06:00 +23°C° 0 mm 2 m/s 764 mmHg 58%
    07:00 +25°C° 0 mm 3 m/s 764 mmHg 51%
    08:00 +27°C° 0 mm 3 m/s 764 mmHg 43%
    09:00 +28°C° 0 mm 4 m/s 764 mmHg 36%
    10:00 +29°C° 0 mm 5 m/s 764 mmHg 32%
    11:00 +30°C° 0 mm 6 m/s 764 mmHg 29%
    12:00 +32°C° 0 mm 7 m/s 764 mmHg 25%
    13:00 +32°C° 0 mm 7 m/s 764 mmHg 25%
    14:00 +30°C° 0 mm 7 m/s 764 mmHg 25%
    15:00 +30°C° 0 mm 7 m/s 763 mmHg 25%
    16:00 +29°C° 0 mm 7 m/s 764 mmHg 28%
    17:00 +27°C° 0 mm 7 m/s 764 mmHg 30%
    18:00 +26°C° 0 mm 7 m/s 764 mmHg 33%
    19:00 +24°C° 0 mm 6 m/s 765 mmHg 34%
    20:00 +23°C° 0 mm 5 m/s 765 mmHg 36%
    21:00 +23°C° 0 mm 5 m/s 766 mmHg 38%
    22:00 +22°C° 0,1 mm 5 m/s 766 mmHg 42%
    23:00 +21°C° 0,1 mm 6 m/s 766 mmHg 46%

    30 Maio, Quarta-feira

    Tempo Temperatura Precipitação Vento Pressão Humidade
    00:00 +21°C° 0,1 mm 7 m/s 766 mmHg 50%
    01:00 +20°C° 0 mm 7 m/s 766 mmHg 53%
    02:00 +20°C° 0 mm 7 m/s 766 mmHg 57%
    03:00 +18°C° 0 mm 7 m/s 766 mmHg 60%
    04:00 +20°C° 0 mm 7 m/s 766 mmHg 60%
    05:00 +20°C° 0 mm 8 m/s 767 mmHg 59%
    06:00 +20°C° 0 mm 8 m/s 767 mmHg 59%
    07:00 +21°C° 0 mm 8 m/s 767 mmHg 56%
    08:00 +22°C° 0 mm 8 m/s 768 mmHg 53%
    09:00 +22°C° 0 mm 8 m/s 768 mmHg 49%
    10:00 +23°C° 0 mm 7 m/s 768 mmHg 45%
    11:00 +24°C° 0 mm 7 m/s 768 mmHg 41%
    12:00 +26°C° 0 mm 7 m/s 768 mmHg 37%
    13:00 +26°C° 0 mm 6 m/s 767 mmHg 36%
    14:00 +26°C° 0 mm 6 m/s 767 mmHg 35%
    15:00 +26°C° 0 mm 6 m/s 767 mmHg 35%
    16:00 +24°C° 0 mm 6 m/s 767 mmHg 37%
    17:00 +23°C° 0 mm 5 m/s 767 mmHg 40%
    18:00 +22°C° 0 mm 5 m/s 767 mmHg 43%
    19:00 +21°C° 0 mm 4 m/s 767 mmHg 47%
    20:00 +20°C° 0 mm 4 m/s 767 mmHg 51%
    21:00 +19°C° 0 mm 3 m/s 767 mmHg 56%
    22:00 +19°C° 0 mm 2 m/s 766 mmHg 58%
    23:00 +19°C° 0 mm 2 m/s 766 mmHg 60%
    Mostrar mais